Flag for Canada Weather past 2 weeks in Saint-Jérôme, Quebec, Canada

Now
28 °F

Partly cloudy.


Feels Like: 23 °F
Forecast: N/A
Wind: 5 mph from Southwest

Location: Montreal / Mirabel

Current Time: Dec 18, 2014 at 5:54:58 PM

Latest Report: Dec 18, 2014 at 5:00 PM


Visibility: 25 mi

Pressure: 29.93 "Hg

Humidity: 86%

Dew point: 25 °F

Location of Saint-JérômeLocation

Historic Weather in Saint-Jérôme — Graph

°F

Saint-Jérôme temperature yesterday

Maximum temperature yesterday: 32 °F (at 10:00 AM)
Minimum temperature yesterday: 30 °F (at 12:00 AM)
Average temperature yesterday: 31 °F

Past Weeks' High & Low Weather Summary

 TemperatureHumidityPressure
High34 °F (Dec 3, 7:00 PM)100% (Dec 3, 5:00 PM)30.84 "Hg (Dec 3, 5:00 PM)
Low-2 °F (Dec 5, 1:00 AM)37% (Dec 7, 2:00 PM)29.58 "Hg (Dec 11, 1:00 AM)
Average24 °F83%30.12 "Hg
* Reported Dec 3 5:00 PM — Dec 18 5:00 PM, Saint-Jérôme, Weather by CustomWeather, © 2014

Note: Actual official high and low records may vary slightly from our data, if they occured in-between our weather recording intervals... More about our weather records

Advertising

Saint-Jérôme weather history for previous 24 hours

 ConditionsComfort  
Time TempWeatherWind HumidityBarometerVisibility
5:00 PM
Dec 18
28 °FPartly cloudy.5 mph86%29.93 "Hg25 mi
4:00 PM30 °FBroken clouds.8 mph80%29.90 "Hg25 mi
3:00 PM30 °FBroken clouds.7 mph86%29.89 "Hg25 mi
2:00 PM32 °FOvercast.6 mph80%29.89 "Hg25 mi
1:00 PM32 °FMostly cloudy.8 mph87%29.88 "Hg15 mi
12:00 PM32 °FLight snow. More clouds than sun.6 mph87%29.88 "Hg10 mi
11:00 AM30 °FLight snow. Ice fog.5 mph93%29.88 "Hg3 mi
10:00 AM32 °FLight snow. Ice fog.5 mph87%29.89 "Hg3 mi
9:52 AM32 °FLight snow. Ice fog.5 mph87%29.89 "Hg3 mi
9:00 AM32 °FLight snow. Ice fog.2 mph93%29.88 "Hg2 mi
8:00 AM32 °FLight snow. Ice fog.3 mph93%29.85 "Hg2 mi
7:00 AM32 °FLight snow. Ice fog.5 mph93%29.83 "Hg2 mi
6:00 AM32 °FLight snow. Ice fog.2 mph93%29.82 "Hg1 mi
5:00 AM32 °FLight snow. Ice fog.3 mph93%29.80 "Hg1 mi
4:00 AM32 °FLight snow. Ice fog.2 mph93%29.80 "Hg1 mi
3:00 AM32 °FLight snow. Ice fog.2 mph93%29.80 "Hg1 mi
2:00 AM32 °FLight snow. Ice fog.3 mph93%29.79 "Hg1 mi
1:00 AM32 °FLight snow. Ice fog.3 mph93%29.78 "Hg2 mi
12:00 AM32 °FLight snow. Ice fog.No wind93%29.78 "Hg2 mi
11:00 PM
Dec 17
32 °FIce fog.No wind93%29.79 "Hg1 mi
10:00 PM32 °FIce fog.2 mph93%29.79 "Hg1 mi
9:00 PM32 °FIce fog.2 mph93%29.80 "Hg1 mi
8:00 PM32 °FLight snow. Ice fog.3 mph93%29.80 "Hg1 mi
7:00 PM32 °FLight snow. Ice fog.3 mph93%29.80 "Hg1 mi
6:00 PM32 °FLight freezing rain. Ice fog.5 mph93%29.80 "Hg1 mi
5:00 PM32 °FLight freezing rain. Ice fog.5 mph93%29.79 "Hg1 mi
Weather by CustomWeather, © 2014

See weather overviewHow to use our weather pages